Location: Newark
(13.9550°N, 109.0422°E)
Time: 08:23:43
(UTC+00:00)

Hubble Space Telescope - Pass Details

Date: 23 October 2019
Orbit: 536 x 540 km, 28.5° (Epoch: 17 November)

Event Time Altitude Azimuth Distance (km) Brightness Sun altitude
Exits shadow 21:32:07 11° 218° (SW) 1,722 3.1 -16.2°
Maximum altitude 21:35:47 37° 151° (SSE) 835 2.1 -15.3°
Drops below altitude 10° 21:39:36 10° 82° (E) 1,775 4.7 -14.4°
Sets 21:41:58 0° 74° (ENE) 2,665 5.6 -13.8°
